map of BVB home
BVB - Airport
Location
City:  Boa Vista, Roraima, Brazil
ICAO:SBBV
IATA:BVB

Details
Type:Airport (Aerodrome, Airfield)
Use:Public/Civil, International (customs port of entry)
Latitude:250'47"N (2.846311)
Longitude:6041'24"W (-60.690068)
Datum:WGS 1984
Elevation:276 ft (84 m)
Variation:15.32W (WMM2015 magnetic declination)
-0.09 annual change
Runways:1
Longest:8858 × 148 ft (2700 × 45 m), paved

Time
Time Zone:UTC-4
Local Time:

Weather
METAR:SBBV 090900Z 11010KT CAVOK 27/22 Q1010
TAF:SBBV 090400Z 0906/1006 10005KT CAVOK TN24/0908Z TX33/0917Z
BECMG 0913/0915 11010KT 9999 SCT030
BECMG 0917/0919 13008KT SCT040 FEW045TCU
BECMG 0921/0923 16008KT FEW040
RMK PEN

Related Locations
Nearby:
Farthest:WAWJ: 12431 mi / 20006 km
Tampa Padang [Tampa Padang Airport], SR, ID

Find:

   beyond  
but within

Other Information
Maps:
NOTAMs:
Links:
Sources:

  
flag of Brazil
flag of Roraima
  

Sectional Chart

Flight Planning
at skyvector.com

Satellite Image

Google Maps Satellite view

 

Copyright © 2004-2016 Karl L. Swartz. All rights reserved.
The Great Circle Mapper name and logo are trademarks of the Great Circle Mapper.
All other trademarks mentioned herein belong to their respective owners.
Please see credits for attibutions and further copyright information.

  Follow gcmap on Facebook Follow gcmap on Twitter Follow gcmap on Google+ GCmap on LinkedIn

hCard Microformat

Geo Microformat